Location: Favalello
(42.2939°N, 9.2706°E)
Time: 11:49:29
(UTC+00:00)

Cosmos 1733 Rocket - Pass Details

Date: 06 December 2019
Orbit: 604 x 627 km, 82.5° (Epoch: 23 January)

Event Time Altitude Azimuth Distance (km) Brightness Sun altitude
Rises 16:40:55 0° 357° (N) 2,883 6.3 -9.2°
Reaches altitude 10° 16:43:13 10° 4° (N) 1,977 5.4 -9.6°
Maximum altitude 16:47:26 46° 78° (ENE) 828 3.3 -10.3°
Drops below altitude 10° 16:51:39 10° 152° (SSE) 1,976 5.6 -11.0°
Sets 16:53:56 0° 159° (SSE) 2,881 6.5 -11.4°
